Hourly Weather Roundup
Issued by NWS Central Illinois

Home | Current Version | Previous Version | Text Only | Print | Product List | Glossary On
Versions: 1 2 3 4 5 6 7 8 9 10 11 12 13 14 15 16 17 18 19 20 21 22 23 24 25 26 27 28 29 30 31 32 33 34 35 36 37 38 39 40 41 42 43 44 45 46 47 48 49 50
000
NZUS43 KILX 260910
HWRILX

AREA WEATHER ROUNDUP
NATIONAL WEATHER SERVICE, LINCOLN IL
300 AM CST WED NOV 26 2014


CITY           SKY/WX    TMP DP  RH WIND       PRES   REMARKS
BLOOMINGTON    CLEAR     22  20  92 SE8       30.12F WCI  13
CHAMPAIGN      CLEAR     20  17  88 E8        30.15S WCI  10
DECATUR        CLEAR     21  18  88 SE6       30.13F WCI  13
FLORA          CLEAR     23  23 100 CALM      30.17S
GALESBURG      PTCLDY    20  19  96 E7        30.09F WCI  11
JACKSONVILLE   MOCLDY    28  25  87 SE6       30.10S WCI  22
LACON          PTCLDY    16  14  89 CALM      30.13F
LAWRENCEVILLE  CLEAR     25  23  92 NE6       30.17F WCI  18
LITCHFIELD     CLEAR     24  22  91 SE7       30.11S WCI  16
$$


CITY           SKY/WX    TMP DP  RH WIND       PRES   REMARKS
LINCOLN        CLEAR     23  21  93 CALM      30.14F
MACOMB         MOCLDY    22  21  98 E3        30.10F
MATTOON        CLEAR     23  20  88 SE3       30.13F
MT CARMEL AP   CLEAR     28  25  86 CALM      30.17S
OLNEY-NOBLE AP CLEAR     23  23 100 CALM      30.17S
PARIS          CLEAR     24  23  95 CALM      30.17S
PEORIA         PTCLDY    22  18  85 CALM      30.12F
PONTIAC        CLEAR     22  20  91 E8        30.15F WCI  13
RANTOUL        CLEAR     21  19  89 E5        30.15S WCI  15
ROBINSON       CLEAR     24  22  93 E3        30.18F
SPRINGFIELD    CLEAR     23  21  92 CALM      30.12S
TAYLORVILLE    CLEAR     25  23  93 SE7       30.13S WCI  17
$$

...REGIONAL REPORTS...


CITY           SKY/WX    TMP DP  RH WIND       PRES   REMARKS
CHICAGO O`HARE PTCLDY    19  15  84 NE3       30.17S
KANKAKEE       CLEAR    N/A N/A N/A CALM      30.18R
MOLINE         PTCLDY    14  10  84 E8        30.10F WCI   3
MOUNT VERNON   CLEAR     21  14  73 CALM      30.15S
PITTSFIELD     PTCLDY    28  25  87 SE6       30.08F WCI  22
QUINCY         MOCLDY    27  21  78 SE8       30.05F WCI  19
ROCKFORD       CLEAR     11   7  84 CALM      30.16S FOG
$$


CITY           SKY/WX    TMP DP  RH WIND       PRES   REMARKS
BURLINGTON     PTCLDY    24  21  88 SE7       30.06F WCI  16
CEDAR RAPIDS   MOCLDY    21  19  92 E9        30.03F WCI  11
DES MOINES     LGT SNOW  30  27  88 SE12      29.94F FOG     WCI  20
KIRKSVILLE     CLOUDY    27  22  81 S7        30.01S WCI  19
OTTUMWA        MOCLDY    28  19  69 SE13      29.99S WCI  17
ST LOUIS       MOCLDY    29  23  78 E8        30.10F WCI  21
$$


CITY           SKY/WX    TMP DP  RH WIND       PRES   REMARKS
TERRE HAUTE    CLEAR     24  20  84 E5        30.17R WCI  18
EVANSVILLE     CLEAR     27  22  81 N5        30.17F WCI  22
INDIANAPOLIS   CLOUDY    26  20  77 E3        30.14F
LAFAYETTE      CLOUDY    25  20  81 CALM      30.18R
MADISON        PTCLDY     9   5  84 CALM      30.15R
MILWAUKEE      CLEAR     15  11  83 SE5       30.17F WCI   8
$$




USA.gov is the U.S. government's official web portal to all federal, state and local government web resources and services.